Location: Corcelles
(46.1547°N, 4.7234°E)
Time: 07:59:04
(UTC+00:00)

ATLAS 5 CENTAUR R/B - Pass Details

Date: 14 July 2020
Orbit: 534 x 1124 km, 63.4° (Epoch: 09 August)

Event Time Altitude Azimuth Distance (km) Brightness Sun altitude
Rises 03:18:47 0° 315° (NW) 3,339 5.3 -7.0°
Reaches altitude 10° 03:21:11 10° 309° (NW) 2,492 4.6 -6.7°
Maximum altitude 03:26:40 42° 240° (WSW) 1,320 2.8 -6.0°
Drops below altitude 10° 03:32:55 10° 172° (S) 2,838 4.6 -5.2°
Sets 03:35:49 0° 166° (SSE) 3,850 5.4 -4.8°
